Location: ????????
(38.4362°N, 22.8767°E)
Time: 18:43:32
(UTC+00:00)

Cosmos 1943 Rocket - Pass Details

Date: 23 April 2024
Orbit: 810 x 845 km, 71.0° (Epoch: 27 May)

Event Time Altitude Azimuth Distance (km) Brightness Sun altitude
Rises 01:48:18 0° 318° (NW) 3,407 5.3 -20.6°
Reaches altitude 10° 01:51:37 10° 299° (WNW) 2,468 4.4 -20.0°
Enters shadow 01:51:57 11° 296° (WNW) 2,392 4.3 -20.0°
